Weather observations for the past three days for
Nunapitchuk Airport
Imperial (Metric)
Date Time (akdt) Wind (mph) Vis. (mi.) Weather Sky Cond. Temperature (ºF) Relative Humidity Wind Chill (°F) Heat Index (°F) Pressure Precipitation (in)
Air Dwpt 6 hour altimeter (in) sea level (mb) 1 hr 3 hr 6 hr
Max. Min.
15 02:56 SW 16 10.00 Overcast OVC013 45 43 93% 38 29.62 1002.8
15 01:56 SW 16 10.00 Overcast OVC013 46 43 89% 40 29.61 1002.6
15 00:56 SW 18 10.00 Overcast OVC013 46 43 89% 39 29.59 1002.0
14 23:56 SW 15 10.00 Overcast OVC013 46 43 89% 40 29.58 1001.6
14 22:56 SW 20 10.00 Overcast OVC013 46 43 89% 39 29.56 1001.0
14 21:56 W 18 10.00 Overcast OVC015 46 43 48.9 46 89% 39 29.55 1000.6 0.06
14 20:56 W 21 G 25 10.00 Overcast and Breezy OVC015 46 43 89% 39 29.54 1000.4
14 19:56 W 18 10.00 Overcast BKN026 BKN070 OVC090 48 43 83% 42 29.53 1000.0
14 18:56 W 21 G 26 10.00 Overcast and Breezy OVC020 48.9 43 80% 43 29.52 999.5 0.06
14 17:56 W 16 10.00 Light Rain SCT015 BKN039 OVC050 48 45 89% 42 29.51 999.4 0.03
14 16:56 W 18 10.00 Light Rain FEW013 BKN027 OVC035 48 45 89% 42 29.51 999.2 0.03
14 15:56 W 13 9.00 Light Rain SCT013 BKN019 OVC033 46.9 45 46.9 44.1 93% 42 29.51 999.1 0.02 0.19
14 14:56 W 17 G 24 10.00 Light Rain BKN014 BKN021 OVC027 46.9 43 86% 41 29.5 998.8 0.01
14 13:56 W 13 10.00 Light Rain SCT011 BKN025 OVC047 45 43 93% 39 29.5 998.7 0.03
14 12:56 SW 10 7.00 Light Rain OVC012 45 43 93% 40 29.49 998.4 0.06 0.13
14 11:56 W 8 10.00 Light Rain SCT025 OVC034 45 42.1 90% 41 29.48 998.1 0.03
14 10:56 W 13 10.00 Light Rain FEW012 BKN026 OVC040 44.1 41 89% 38 29.47 997.8 0.04
14 09:56 W 8 10.00 Light Rain SCT014 OVC027 44.1 42.1 45 44.1 93% 40 29.46 997.6 0.04
14 08:56 W 14 10.00 Light Rain OVC018 44.1 42.1 93% 38 29.45 997.2 0.04
14 07:56 SW 14 10.00 Rain OVC022 44.1 42.1 93% 38 29.44 996.9
14 06:56 SW 16 G 22 7.00 Rain BKN020 OVC028 44.1 42.1 93% 37 29.43 996.7 0.05 0.18
14 05:56 SW 16 9.00 Rain BKN016 BKN027 OVC035 45 43 93% 38 29.43 996.6 0.05
14 04:56 SW 15 9.00 Rain FEW007 OVC016 45 44.1 97% 39 29.43 996.4 0.08
14 03:56 W 15 10.00 Light Rain SCT023 OVC033 45 43 48 45 93% 39 29.42 996.3 0.02 0.15
14 02:56 W 15 10.00 Light Rain BKN017 BKN026 OVC034 45 44.1 97% 39 29.43 996.4 0.05
14 01:56 W 14 10.00 Light Rain BKN011 BKN018 OVC048 46 45 96% 40 29.42 996.3 0.04
14 00:56 W 12 8.00 Rain FEW008 BKN030 OVC035 46 45 96% 41 29.42 996.3 0.02 0.04
13 23:56 W 13 10.00 Light Rain BKN036 OVC048 46.9 45 93% 42 29.42 996.3 0.01
13 22:56 W 12 9.00 Light Rain FEW008 BKN020 OVC036 46.9 45 93% 42 29.43 996.4 0.01
13 21:56 W 12 10.00 Light Rain FEW015 SCT033 OVC060 46.9 44.1 48 46.9 90% 42 29.43 996.6 0.26
13 20:56 NW 8 10.00 Light Rain SCT016 BKN025 OVC050 48 45 89% 45 29.44 996.9 0.01
13 19:56 W 9 10.00 Light Rain OVC050 48 44.1 86% 44 29.45 997.2 0.01
13 18:56 W 7 9.00 Light Rain OVC050 46.9 44.1 90% 44 29.46 997.6 0.03 0.24
13 17:56 NW 5 10.00 Light Rain OVC044 46.9 44.1 90% 45 29.47 998.0 0.09
13 16:56 Calm 9.00 Rain OVC042 46.9 44.1 90% 29.48 998.1 0.12
13 15:56 E 6 10.00 Rain SCT026 OVC033 46.9 44.1 48.9 46 90% 45 29.49 998.4 0.04 0.05
13 14:56 N 8 10.00 Light Rain BKN021 BKN028 OVC045 46.9 43 86% 44 29.49 998.6 0.01
13 13:56 N 5 10.00 Overcast OVC029 48.9 42.1 77% 48 29.5 999.0
13 12:56 NW 5 10.00 Overcast OVC037 48.9 42.1 77% 48 29.52 999.5
13 11:56 W 6 10.00 Overcast FEW016 OVC033 48 43 83% 46 29.53 999.8
13 10:56 NW 6 10.00 Overcast BKN014 OVC030 46.9 44.1 90% 45 29.53 1000.0
13 09:56 W 7 10.00 Overcast OVC008 46 44.1 48 46 93% 43 29.54 1000.1 0.01
13 08:56 W 8 10.00 Overcast FEW006 OVC010 46 45 96% 42 29.53 1000.0
13 07:56 W 7 1.50 Light Rain Fog/Mist BKN006 OVC013 46 45 96% 43 29.54 1000.1 0.01
13 06:56 W 8 9.00 Overcast BKN013 OVC019 46.9 45 93% 44 29.54 1000.2
13 05:56 SW 8 10.00 Overcast FEW009 OVC017 46.9 45 93% 44 29.54 1000.2
13 04:56 SW 9 10.00 Overcast BKN014 OVC018 46.9 45 93% 43 29.54 1000.1
13 03:56 SW 10 10.00 Overcast OVC021 48 44.1 51.1 48 86% 44 29.54 1000.1 0.02
13 02:56 SW 15 10.00 Overcast BKN017 OVC022 48 45 89% 43 29.53 999.8
13 01:56 SW 17 10.00 Overcast BKN017 OVC022 48.9 46 90% 43 29.5 999.1
13 00:56 W 17 10.00 Overcast FEW013 BKN021 OVC038 50 46.9 89% 45 29.48 998.2 0.01 0.02
12 23:56 S 14 5.00 Light Rain Fog/Mist OVC006 50 48.9 96% 45 29.44 997.0 0.01
12 22:56 S 18 G 28 9.00 Overcast OVC010 50 48.9 96% 44 29.42 996.3
12 21:56 S 22 G 28 10.00 Overcast and Breezy OVC010 51.1 48.9 53.1 51.1 92% 29.4 995.5 0.07
12 20:56 S 22 G 30 10.00 Overcast and Breezy BKN010 OVC015 51.1 48.9 92% 29.38 994.7 0.02
12 19:56 S 23 G 26 8.00 Overcast and Breezy SCT014 BKN022 OVC040 53.1 50 89% 29.35 993.9 0.04
12 18:56 S 21 G 24 10.00 Overcast and Breezy BKN014 OVC023 53.1 48.9 86% 29.34 993.5 0.01
12 17:56 S 22 G 29 5.00 Light Rain Fog/Mist and Breezy BKN009 BKN019 OVC048 52 51.1 97% 29.34 993.6
12 16:56 S 23 G 29 8.00 Light Rain and Breezy BKN010 BKN015 OVC050 53.1 51.1 93% 29.35 993.8 0.01
12 15:56 SE 23 G 30 4.00 Light Rain Fog/Mist and Breezy BKN010 BKN025 OVC036 53.1 52 54 51.1 96% 29.36 994.1 0.21
12 14:56 SE 20 5.00 Light Rain Fog/Mist SCT010 BKN017 OVC037 53.1 51.1 93% 29.38 994.7 0.08
12 13:56 E 18 G 25 3.00 Light Rain Fog/Mist BKN013 OVC019 52 51.1 97% 29.39 995.0 0.02
12 12:56 E 22 5.00 Light Rain Fog/Mist and Breezy BKN009 BKN016 OVC028 52 50 93% 29.41 995.8 0.02 0.11
12 11:56 E 18 10.00 Light Rain FEW014 BKN046 OVC055 52 50 93% 29.43 996.5 0.05
12 10:56 E 17 10.00 Light Rain FEW036 BKN047 OVC060 51.1 50 96% 29.45 997.2 0.04
12 09:56 E 16 6.00 Light Rain Fog/Mist SCT034 SCT041 OVC049 51.1 51.1 52 51.1 100% 29.47 997.9 0.04 0.29
12 08:56 E 16 10.00 Light Rain FEW007 BKN047 OVC060 51.1 51.1 100% 29.49 998.6 0.02
12 07:56 E 17 G 22 10.00 Light Rain FEW011 BKN047 OVC060 51.1 50 96% 29.52 999.6 0.03
12 06:56 E 18 10.00 Light Rain FEW007 BKN049 OVC055 51.1 51.1 100% 29.54 1000.4 0.04 0.2
12 05:56 E 17 9.00 Light Rain BKN035 BKN044 OVC050 52 51.1 97% 29.57 1001.3 0.09
12 04:56 E 16 10.00 Rain FEW025 SCT039 OVC050 52 51.1 97% 29.59 1002.0 0.07
12 03:56 NE 18 G 24 9.00 Light Rain BKN004 OVC010 52 51.1 52 50 97% 29.62 1002.8 0.09 0.33
Date Time (akdt) Wind (mph) Vis. (mi.) Weather Sky Cond. Air Dwpt Max. Min. Relative Humidity Wind Chill (°F) Heat Index (°F) altimeter (in) sea level (mb) 1 hr 3 hr 6 hr
6 hour
Temperature (ºF) Pressure Precipitation (in)